This is the latest recevied weather packets stored in our database for station/object KD8PH. If no packets are shown the sender has not sent any weather packets the latest 10 day(s).
| Time | Temp. | Humidity | Pressure | Rain* | Wind** | Luminosity | Snow |
|---|---|---|---|---|---|---|---|
| 1777601736 | 15° C | 64% | 1012.6 hPa | 0.51 mm | - | - | - |
| 1777601135 | 15° C | 64% | 1012.4 hPa | 0.25 mm | - | - | - |
| 1777600556 | 15° C | 61% | 1012.1 hPa | 0.51 mm | - | - | - |
| 1777599940 | 15° C | 62% | 1012.1 hPa | 0.51 mm | - | - | - |
| 1777599336 | 15.56° C | 63% | 1011.8 hPa | 0.51 mm | - | - | - |
| 1777598749 | 15.56° C | 61% | 1011.7 hPa | 0.25 mm | - | - | - |
| 1777598150 | 15.56° C | 64% | 1011.8 hPa | 0.51 mm | - | - | - |
| 1777597554 | 15.56° C | 65% | 1011.8 hPa | 0.51 mm | - | - | - |
| 1777596947 | 16.11° C | 62% | 1011.8 hPa | 0.25 mm | - | - | - |
| 1777596347 | 16.11° C | 60% | 1011.9 hPa | 0.51 mm | - | - | - |
| 1777595745 | 16.11° C | 62% | 1011.8 hPa | 0.51 mm | - | - | - |
| 1777595145 | 16.67° C | 61% | 1011.7 hPa | 0.51 mm | - | - | - |
| 1777594546 | 16.67° C | 59% | 1011.6 hPa | 0.51 mm | - | - | - |
| 1777593939 | 17.22° C | 62% | 1011.6 hPa | 0.51 mm | - | - | - |
| 1777593345 | 17.22° C | 61% | 1011.6 hPa | 0.51 mm | - | - | - |
| 1777592739 | 17.78° C | 57% | 1011.4 hPa | 0.51 mm | - | - | - |
| 1777592143 | 17.78° C | 56% | 1011.2 hPa | 0.51 mm | - | - | - |
| 1777591550 | 17.78° C | 54% | 1011.2 hPa | 0.76 mm | - | - | - |
| 1777590939 | 17.78° C | 53% | 1011.2 hPa | 0.51 mm | - | - | - |
| 1777590341 | 18.33° C | 52% | 1011.4 hPa | 0.51 mm | - | - | - |
| 1777589741 | 18.33° C | 51% | 1011.5 hPa | 0.76 mm | - | - | - |
| 1777589138 | 18.33° C | 51% | 1011.6 hPa | 0.51 mm | - | - | - |
| 1777588539 | 18.33° C | 50% | 1011.5 hPa | 0.51 mm | - | - | - |
| 1777587935 | 18.33° C | 49% | 1011.5 hPa | 0.51 mm | - | - | - |
| 1777587346 | 18.33° C | 47% | 1011.4 hPa | 0.51 mm | - | - | - |
* Rain latest hour (hover to see other rain measurements)
** Current wind speed in m/s (hover to see current wind gust speed)